Location: Burera
(21.3780°N, 81.9534°E)
Time: 01:36:09
(UTC+00:00)

Cosmos 1190 Rocket - Pass Details

Date: 13 August 2020
Orbit: 756 x 780 km, 74.1° (Epoch: 22 September)

Event Time Altitude Azimuth Distance (km) Brightness Sun altitude
Rises 13:44:09 0° 186° (S) 3,216 7.1 -9.8°
Reaches altitude 10° 13:46:32 10° 183° (S) 2,295 6.3 -10.3°
Maximum altitude 13:51:41 64° 102° (ESE) 851 4.0 -11.4°
Drops below altitude 10° 13:56:53 10° 22° (NNE) 2,318 6.5 -12.6°
Sets 13:59:17 0° 19° (NNE) 3,250 7.3 -13.1°
